Regional Weather Roundup
Issued by NWS Sioux Falls, SD

Home | Current Version | Previous Version | Text Only | Print | Product List | Glossary Off
Versions: 1 2 3 4 5 6 7 8 9 10 11 12 13 14 15 16 17 18 19 20 21 22 23 24 25 26 27 28 29 30 31 32 33 34 35 36 37 38 39 40 41 42 43 44 45 46 47 48 49 50

000
ASUS43 KFSD 280102
RWRFSD

WEATHER ROUNDUP FOR SE SOUTH DAKOTA/SW MINNESOTA/NW IOWA
NATIONAL WEATHER SERVICE SIOUX FALLS SD
800 PM CDT MON APR 27 2015

NOTE: "FAIR" INDICATES FEW OR NO CLOUDS BELOW 12,000 FEET WITH NO
SIGNIFICANT WEATHER AND OR OBSTRUCTIONS TO VISIBILITY.


SDZ038>040-050-052>070-280200-
SOUTHEAST SOUTH DAKOTA

CITY           SKY/WX    TMP DP  RH WIND       PRES   REMARKS
BROOKINGS      CLEAR     63  25  23 N6        30.18R
CHAMBERLAIN    NOT AVBL
HURON          CLEAR     65  23  20 NE6       30.15S
MADISON        FAIR      63  19  19 N9        30.16S
MITCHELL       PTCLDY    68  31  25 NE3       30.16S
SIOUX FALLS    MOCLDY    61  28  28 N3        30.15S
WINNER         FAIR      63  38  39 N22G28    30.21R
YANKTON        PTCLDY    64  28  25 N7        30.14S
$$

MNZ071-072-080-081-089-090-097-098-280200-
SOUTHWEST MINNESOTA

CITY           SKY/WX    TMP DP  RH WIND       PRES   REMARKS
FAIRMONT       CLEAR     64  23  20 N5        30.14R
JACKSON        PTCLDY    61  16  17 N6        30.15S
LUVERNE        PTCLDY    64  21  19 NE3       30.15S
MARSHALL       PTCLDY    64  21  19 N8        30.15S
MONTEVIDEO     PTCLDY    64  23  20 CALM      30.16S
REDWOOD FALLS  PTCLDY    65  21  18 N5        30.15R
TRACY          PTCLDY    64  23  20 N5        30.16R
WORTHINGTON    CLEAR     63  21  20 NE7       30.16S
$$

IAZ001>003-012>014-020>022-031-032-NEZ013-014-SDZ071-280200-
NORTHWEST IOWA

CITY           SKY/WX    TMP DP  RH WIND       PRES   REMARKS
DENISON        PTCLDY    61  30  31 NE7       30.11S
ESTHERVILLE    PTCLDY    59  32  36 NE6       30.14S
LE MARS        PTCLDY    66  25  20 E5        30.14S
ORANGE CITY    PTCLDY    64  27  24 NE3       30.14S
SHELDON        PTCLDY    63  25  23 NE8       30.13S
SIOUX CITY     PTCLDY    66  28  24 NE7       30.13S
SPENCER        CLEAR     62  29  28 NE7       30.14S
STORM LAKE     CLEAR     61  32  33 NE8       30.15R
$$

ABBREVIATIONS USED IN REMARKS
   TC - TEMPERATURE IN CELSIUS
  WCI - WIND CHILL INDEX
   HX - HEAT INDEX
  VSB - VISIBILITY



USA.gov is the U.S. government's official web portal to all federal, state and local government web resources and services.